This demonstration page uses our WeatherBlox Daily Observations layout. Learn more.

Left ArrowRight Arrow

Hourly Observations for October 23, 2020

Temp ( °F °C ) Dew Point ( °F °C ) Humidity (%) Winds ( mph kmh ) Pressure ( in mb ) Visibility ( mi km ) Precip ( " mm )
12:15 am 00:15 Cloudy 33 0.8 31 -0.8 89 89 N 15 24 30.29 1026 10 16 N/A
12:35 am 00:35 Cloudy 33 0.8 30 -1.2 87 87 N 16 26 30.29 1026 10 16 N/A
12:55 am 00:55 Cloudy 33 0.7 29 -1.5 85 85 N 20 31 30.30 1026 10 16 N/A
1:15 am 01:15 Cloudy 33 0.6 29 -1.6 85 85 N 17 28 30.31 1026 10 16 N/A
1:35 am 01:35 Cloudy 33 0.5 29 -1.5 87 87 N 15 24 30.31 1026 10 16 N/A
1:55 am 01:55 Cloudy 33 0.5 29 -1.5 87 87 N 17 28 30.32 1027 10 16 N/A
2:15 am 02:15 Cloudy 33 0.5 29 -1.5 87 87 N 18 30 30.33 1027 10 16 N/A
2:35 am 02:35 Cloudy 33 0.5 30 -1.2 89 89 N 21 33 30.34 1027 10 16 N/A
2:55 am 02:55 Cloudy 33 0.5 30 -1.2 89 89 N 17 28 30.35 1028 10 16 N/A
3:15 am 03:15 Cloudy 33 0.5 29 -1.5 87 87 N 18 30 30.37 1028 10 16 N/A
3:35 am 03:35 Cloudy 33 0.5 30 -1.3 88 88 N 17 28 30.37 1028 10 16 N/A
3:55 am 03:55 Cloudy 33 0.5 29 -1.5 87 87 N 12 19 30.37 1028 10 16 N/A
4:15 am 04:15 Cloudy 33 0.5 30 -1.3 88 88 N 13 20 30.37 1028 10 16 N/A
4:35 am 04:35 Cloudy 33 0.4 29 -1.6 87 87 NNW 18 30 30.39 1029 10 16 N/A
4:55 am 04:55 Cloudy 32 undefined 28 -2.1 86 86 N 16 26 30.40 1029 10 16 N/A
5:15 am 05:15 Cloudy 32 undefined 28 -2.5 83 83 N 17 28 30.41 1030 10 16 N/A
5:35 am 05:35 Cloudy 32 undefined 28 -2.5 83 83 N 17 28 30.42 1030 10 16 N/A
5:55 am 05:55 Cloudy 32 -0.1 27 -2.7 83 83 N 17 28 30.42 1030 10 16 N/A
6:15 am 06:15 Cloudy 32 -0.1 27 -2.7 83 83 N 13 20 30.44 1031 10 16 N/A
6:35 am 06:35 Cloudy 32 -0.2 27 -2.9 82 82 N 16 26 30.44 1031 10 16 N/A
6:55 am 06:55 Cloudy 31 -0.5 26 -3.2 82 82 N 18 30 30.44 1031 10 16 N/A
7:15 am 07:15 Cloudy 31 -0.5 27 -3 83 83 N 16 26 30.45 1031 10 16 N/A
7:35 am 07:35 Cloudy 31 -0.5 26 -3.2 82 82 N 16 26 30.46 1032 10 16 N/A
7:55 am 07:55 Cloudy 31 -0.5 26 -3.4 81 81 N 21 33 30.47 1032 10 16 N/A
8:15 am 08:15 Cloudy 31 -0.7 26 -3.4 82 82 N 15 24 30.48 1032 10 16 N/A
8:35 am 08:35 Cloudy 31 -0.5 26 -3.2 82 82 N 15 24 30.49 1033 10 16 N/A
8:55 am 08:55 Cloudy 31 -0.3 26 -3.2 81 81 N 21 33 30.50 1033 10 16 N/A
9:15 am 09:15 Cloudy 31 -0.3 26 -3.2 81 81 N 17 28 30.51 1033 10 16 N/A
9:35 am 09:35 Cloudy 32 -0.2 26 -3.2 80 80 N 20 31 30.52 1033 10 16 N/A
9:55 am 09:55 Cloudy 32 -0.2 26 -3.5 79 79 N 16 26 30.53 1034 10 16 N/A
10:15 am 10:15 Cloudy 32 -0.2 26 -3.5 79 79 N 16 26 30.54 1034 10 16 N/A
10:35 am 10:35 Cloudy 32 undefined 26 -3.3 79 79 N 13 20 30.55 1034 10 16 N/A
10:55 am 10:55 Cloudy 32 -0.1 26 -3.5 78 78 N 15 24 30.55 1034 10 16 N/A
11:15 am 11:15 Cloudy 32 undefined 26 -3.4 78 78 N 12 19 30.56 1035 10 16 N/A
11:35 am 11:35 Cloudy 32 0.2 26 -3.3 78 78 N 15 24 30.55 1035 10 16 N/A
11:55 am 11:55 Cloudy 33 0.6 26 -3.6 74 74 N 15 24 30.56 1035 10 16 N/A
12:15 pm 12:15 Cloudy 33 0.6 25 -3.7 73 73 N 15 24 30.56 1035 10 16 N/A
12:35 pm 12:35 Cloudy 35 1.4 26 -3.5 70 70 N 16 26 30.54 1034 10 16 N/A
12:55 pm 12:55 Cloudy 33 0.7 26 -3.1 76 76 NNW 13 20 30.55 1035 10 16 N/A
1:15 pm 13:15 Cloudy 33 0.5 26 -3.4 75 75 NNW 15 24 30.55 1035 10 16 N/A
1:35 pm 13:35 Cloudy 33 0.5 26 -3.3 76 76 NNW 12 19 30.54 1034 10 16 N/A
1:55 pm 13:55 Cloudy 32 0.1 26 -3.2 79 79 N 13 20 30.55 1034 10 16 N/A
2:15 pm 14:15 Cloudy 32 0.2 26 -3.3 78 78 NNW 10 17 30.54 1034 10 16 N/A
2:35 pm 14:35 Cloudy 33 0.6 26 -3.6 74 74 N 13 20 30.53 1034 10 16 N/A
2:55 pm 14:55 Cloudy 33 0.5 25 -3.9 73 73 NNW 10 17 30.52 1034 10 16 N/A
3:15 pm 15:15 Cloudy 33 0.3 25 -4 73 73 N 12 19 30.52 1034 10 16 N/A
3:35 pm 15:35 Cloudy 33 0.3 24 -4.4 71 71 NNW 10 17 30.52 1034 10 16 N/A
3:55 pm 15:55 Cloudy 33 0.3 24 -4.5 70 70 N 10 17 30.51 1033 10 16 N/A
4:15 pm 16:15 Cloudy 33 0.3 24 -4.5 70 70 N 9 15 30.51 1033 10 16 N/A
4:35 pm 16:35 Cloudy 32 0.1 24 -4.7 70 70 N 9 15 30.50 1033 10 16 N/A
4:55 pm 16:55 Cloudy 32 undefined 23 -4.9 70 70 N 12 19 30.50 1033 10 16 N/A
5:15 pm 17:15 Cloudy 32 undefined 23 -5.1 69 69 NNE 10 17 30.50 1033 10 16 N/A
5:35 pm 17:35 Cloudy 32 undefined 23 -5 69 69 N 8 13 30.50 1033 10 16 N/A
5:55 pm 17:55 Cloudy 32 -0.1 22 -5.3 68 68 NNE 6 9 30.50 1033 10 16 N/A
6:15 pm 18:15 Cloudy 32 -0.2 23 -5.1 70 70 NNE 7 11 30.50 1033 10 16 N/A
6:35 pm 18:35 Cloudy 31 -0.3 23 -5.2 70 70 N 8 13 30.50 1033 10 16 N/A
6:55 pm 18:55 Cloudy 31 -0.5 23 -5.2 71 71 N 6 9 30.49 1033 10 16 N/A
7:15 pm 19:15 Cloudy 31 -0.7 23 -5.2 72 72 N 7 11 30.49 1033 10 16 N/A
7:35 pm 19:35 Cloudy 31 -0.8 22 -5.3 72 72 N 7 11 30.49 1033 10 16 N/A
7:55 pm 19:55 Cloudy 30 -1 22 -5.5 72 72 N 6 9 30.50 1033 10 16 N/A
8:15 pm 20:15 Cloudy 30 -1 23 -5.1 74 74 N 7 11 30.50 1033 10 16 N/A
8:35 pm 20:35 Cloudy 30 -1 22 -5.5 72 72 N 9 15 30.50 1033 10 16 N/A
8:55 pm 20:55 Cloudy 30 -1 22 -5.3 73 73 NE 7 11 30.49 1032 10 16 N/A
9:15 pm 21:15 Cloudy 30 -1.2 22 -5.5 73 73 NE 7 11 30.49 1032 10 16 N/A
9:35 pm 21:35 Cloudy 30 -1.3 22 -5.5 73 73 NE 8 13 30.49 1032 10 16 N/A
9:55 pm 21:55 Cloudy 29 -1.5 22 -5.7 73 73 NE 8 13 30.48 1032 10 16 N/A
10:15 pm 22:15 Cloudy 29 -1.5 22 -5.7 73 73 E 6 9 30.48 1032 10 16 N/A
10:35 pm 22:35 Cloudy 29 -1.5 22 -5.7 73 73 E 6 9 30.48 1032 10 16 N/A
10:55 pm 22:55 Cloudy 29 -1.5 22 -5.6 74 74 ESE 7 11 30.48 1032 10 16 N/A
11:15 pm 23:15 Cloudy 29 -1.5 22 -5.5 74 74 E 7 11 30.47 1032 10 16 N/A
11:35 pm 23:35 Cloudy 29 -1.6 22 -5.6 74 74 SE 7 11 30.48 1032 10 16 N/A
11:55 pm 23:55 Cloudy 29 -1.6 22 -5.3 76 76 ESE 7 11 30.46 1032 10 16 N/A

Powered by AerisWeather